Location: Adelshausen
(48.1437°N, 10.9392°E)
Time: 23:50:13
(UTC+00:00)

Daily predictions for brighter satellites

Satellite Brightness Start Highest point End
(mag) Time Altitude Azimuth Time Altitude Azimuth Time Altitude Azimuth
NOSS 3-4 (A) 4.1 16:09:15 10° NW 16:15:32 46° NE 16:22:51 10° ESE
NOSS 3-4 (C) 4.1 16:09:20 10° NW 16:15:36 46° NE 16:22:54 10° ESE
Cosmos 1459 Rocket 4.4 16:11:48 10° SSE 16:17:37 44° E 16:23:32 10° NNE
Cosmos 1603 3.8 16:14:27 10° NNW 16:20:07 61° ENE 16:25:42 10° SE
Meteor 1-28 Rocket 3.0 16:17:17 10° N 16:20:39 80° WNW 16:24:01 10° SSW
Cosmos 1867 4.4 16:16:08 10° S 16:20:54 32° ESE 16:25:42 10° NE
NOSS 3-3 (A) 3.7 16:16:52 10° SSW 16:22:01 71° SE 16:28:11 10° NE
Cosmos 909 Rocket 4.1 16:16:38 10° NNW 16:23:02 66° NE 16:29:23 10° SE
SAR-Lupe-4 3.6 16:21:19 10° SSE 16:24:50 61° ENE 16:28:24 10° N
SL-16 R/B 2.8 16:19:38 10° NNE 16:25:55 77° WNW 16:32:09 10° SSW
Cosmos 1943 3.7 16:21:03 10° NNW 16:26:39 67° WSW 16:32:13 10° SSE
ATLAS 5 CENTAUR R/B 3.3 16:26:35 10° N 16:28:47 14° NNE 16:31:11 10° ENE
SMAP 3.0 16:24:45 10° SSE 16:29:23 74° ENE 16:34:03 10° N
COSMO-SKYMED 1 4.2 16:27:59 10° ENE 16:30:10 14° E 16:32:21 10° ESE
IRS-1C 4.1 16:25:31 10° SSE 16:30:47 68° ENE 16:36:06 10° N
Iridium 4 Rocket 3.7 16:26:53 10° SSE 16:32:16 55° E 16:37:15 10° NNE
Cosmos 1802 Rocket 4.4 16:27:39 10° SSE 16:33:39 45° E 16:39:42 10° NNE
Cosmos 1606 2.6 16:31:47 10° SSE 16:34:15 31° E 16:36:44 10° NNE
Cosmos 1908 Rocket 4.3 16:31:13 10° SSE 16:35:04 31° E 16:38:58 10° NNE
Cosmos 1302 Rocket 3.9 16:32:04 10° NNW 16:37:18 74° ENE 16:42:31 10° SSE
ATLAS 2AS CENTAUR R/B 4.2 16:32:01 10° WNW 16:37:36 25° NNW 16:43:07 10° NE
Cosmos 2221 Rocket 3.9 16:35:01 10° N 16:39:22 45° ENE 16:43:39 10° SSE
Tiangong -0.2 16:37:50 10° SW 16:40:24 22° S 16:42:58 10° ESE
SL-4 R/B 2.0 16:37:55 10° WNW 16:41:15 48° N 16:44:10 14° E
NOSS 3-3 (C) 3.7 16:38:32 10° SW 16:43:46 86° SE 16:50:02 10° NE
Landsat 7 3.7 16:39:40 10° SSE 16:44:18 73° ENE 16:48:58 10° N
Cosmos 1900 4.5 16:41:08 10° SSW 16:46:12 64° ESE 16:51:18 10° NE
Cosmos 2173 Rocket 4.0 16:40:11 10° S 16:46:25 75° E 16:52:36 10° NNE
SAR-Lupe-3 3.7 16:44:01 10° NNE 16:46:44 72° ESE 16:49:25 10° S
Cosmos 1733 Rocket 3.6 16:44:26 10° SSW 16:48:42 62° WNW 16:53:00 10° N
Tsikada Rocket 4.4 16:42:50 10° N 16:48:53 41° ENE 16:54:53 10° SE
Cosmos 2227 4.3 16:43:16 10° SSW 16:49:01 90° W 16:54:50 10° NNE
USA 281 4.1 16:45:47 10° E 16:51:13 29° NE 16:56:40 10° N
Resurs 01 Rocket 3.3 16:51:06 14° ENE 16:51:21 14° ENE 16:53:36 10° NNE
Cosmos 2227 Rocket 4.4 16:49:21 10° W 16:53:17 19° NW 16:57:15 10° N
Cosmos 2082 Rocket 4.1 16:51:34 10° N 16:53:22 11° NNE 16:55:04 10° NE
CZ-4C R/B 1.9 16:50:01 10° SSW 16:54:03 51° ESE 16:58:43 12° NE
Cosmos 1992 Rocket 4.0 16:51:02 10° NNW 16:56:12 60° ENE 17:01:19 10° SE
Cosmos 1441 Rocket 3.5 16:55:55 10° N 16:58:59 32° ENE 17:02:01 10° SE
AQUARIUS 4.1 16:54:57 10° SSE 16:59:21 85° ENE 17:03:48 10° NNW
Meteor 1-11 4.5 16:55:18 10° NNW 17:01:06 78° W 17:06:46 10° S
Cosmos 1844 3.7 16:55:25 10° SSW 17:01:13 87° ESE 17:07:01 10° NNE
Cosmos 1340 Rocket 3.0 17:07:33 10° SSW 17:11:24 70° WNW 17:15:17 10° N
Cosmos 1674 Rocket 4.3 17:09:42 10° NNW 17:14:00 55° W 17:18:14 10° S
PSLV R/B 3.6 17:11:57 10° SE 17:15:52 47° ENE 17:19:47 10° N
Cosmos 2016 Rocket 3.9 17:11:03 10° S 17:17:16 76° E 17:23:37 10° NNE
SJ-7 4.2 17:14:46 10° SSE 17:18:22 53° ENE 17:21:59 10° N
Resurs 1-3 3.6 17:18:38 10° SSE 17:22:48 52° ENE 17:27:00 10° N
Helios 1A Rocket 2.4 17:23:43 25° NNE 17:25:27 54° E 17:28:46 10° S
MOS 1 Rocket 3.4 17:28:23 10° S 17:32:37 66° W 17:36:54 10° NNW
BREEZE M DEB (TANK) 3.9 17:16:11 10° WSW 17:34:44 85° NNW 17:37:25 31° ENE
Cosmos 1025 Rocket 4.2 17:30:47 10° NNW 17:34:56 45° W 17:39:03 10° SSW
Cosmos 2061 Rocket 3.9 17:29:11 10° S 17:35:29 70° E 17:41:45 10° NNE
YAOGAN 1 2.4 17:31:41 10° SSE 17:35:56 76° ENE 17:40:12 10° N
Cosmos 921 Rocket 2.8 17:32:21 10° SSW 17:36:37 75° ESE 17:39:40 19° NNE
IRAS Rocket 4.3 17:34:52 10° SSE 17:40:28 82° WSW 17:46:04 10° NNW
SPOT 1/Viking Rocket 3.7 17:36:36 10° S 17:41:45 76° WSW 17:46:57 10° NNW
SL-19 R/B 4.0 17:38:58 10° SSE 17:44:19 89° WSW 17:49:34 10° NNW
ATLAS CENTAUR R/B 1.1 17:41:44 10° SSW 17:44:48 54° SSE 17:44:48 54° SSE
Cosmos 1844 Rocket 3.8 17:41:07 10° SW 17:46:23 42° NW 17:51:42 10° NNE
Cosmos 1763 Rocket 4.3 17:44:41 10° N 17:48:59 32° NE 17:48:59 32° NE
ARIANE 6 FM1 Upper Stage 3.3 17:46:54 10° WSW 17:50:46 47° NW 17:52:12 32° NNE
Cosmos 1833 Rocket 2.6 17:49:11 10° NNW 17:54:51 70° ENE 17:57:24 33° SE
CZ-2D R/B 4.5 17:52:43 10° S 17:56:34 45° W 18:00:33 10° NNW
Cosmos 1782 Rocket 3.7 17:52:15 10° SSW 17:56:42 77° W 18:01:09 10° N
Cosmos 1140 Rocket 3.6 17:51:48 10° S 17:56:48 50° ESE 17:56:58 50° E
SKYMED 2 4.3 17:57:12 10° N 18:01:27 52° WNW 18:05:39 10° SSW
Cosmos 1891 Rocket 4.5 17:57:55 10° S 18:04:12 62° E 18:10:35 10° NNE
Cosmos 1867 4.2 17:58:58 10° WSW 18:04:16 52° NW 18:07:26 24° NNE
COSMO-SKYMED 1 2.8 18:02:06 12° N 18:05:55 62° WNW 18:09:58 10° SSW
NOSS 3-4 (A) 4.4 18:00:00 10° NW 18:06:42 57° WSW 18:14:31 10° SSE
NOSS 3-4 (C) 4.4 18:00:04 10° NW 18:06:46 58° WSW 18:14:36 10° SSE
Cosmos 2344 4.4 18:05:05 10° NW 18:11:57 36° NNE 18:14:01 32° NE
ATLAS 5 CENTAUR R/B 2.2 18:07:57 10° NNW 18:11:08 43° N 18:11:08 43° N
Cosmos 540 Rocket 4.4 18:09:38 10° NNW 18:12:58 33° NNE 18:12:58 33° NNE
Tiangong 0.4 18:14:13 10° WSW 18:15:32 18° SW 18:15:32 18° SW
Cosmos 1975 Rocket 3.5 18:13:10 10° NNW 18:17:25 60° W 18:20:47 16° S
SL-4 R/B 2.9 18:15:34 10° WNW 18:17:58 40° WNW 18:17:58 40° WNW
Resurs 01 Rocket 2.5 18:28:31 43° NNW 18:28:31 43° NNW 18:31:33 10° NNW
BREEZE-M DEB (TANK) 3.6 18:27:29 10° WSW 18:29:29 53° W 18:29:29 53° W
ATLAS 2AS CENTAUR R/B 4.1 18:25:34 10° NW 18:30:53 23° NNE 18:31:46 22° NNE
USA 281 3.2 18:31:57 33° SSE 18:35:10 78° WSW 18:41:47 10° NNW
Cosmos 2082 Rocket 3.5 18:33:50 10° NNW 18:36:54 28° N 18:36:54 28° N
DNEPR-1 R/B 4.4 18:36:56 10° NW 18:40:51 52° WSW 18:40:51 52° WSW
CZ-4C R/B 3.3 18:38:20 10° W 18:42:33 33° NNW 18:43:42 30° N
SL-12 R/B(2) 4.4 19:37:50 10° SW 19:44:56 69° W 19:44:56 69° W
